Hourly Weather Barnislawice

Today, 19 April, Monday

Time Temperature Precipitation Wind Pressure Humidity
00:00 +7°C° 0 mm 2 mps 762 mmHg 89%
01:00 +7°C° 0 mm 2 mps 762 mmHg 91%
02:00 +7°C° 0 mm 2 mps 762 mmHg 91%
03:00 +6°C° 0 mm 2 mps 762 mmHg 91%
04:00 +6°C° 0 mm 2 mps 762 mmHg 91%
05:00 +5°C° 0 mm 3 mps 761 mmHg 87%
06:00 +7°C° 0 mm 3 mps 761 mmHg 83%
07:00 +7°C° 0 mm 3 mps 761 mmHg 77%
08:00 +9°C° 0 mm 3 mps 761 mmHg 73%
09:00 +11°C° 0 mm 3 mps 761 mmHg 68%
10:00 +13°C° 0 mm 4 mps 761 mmHg 64%
11:00 +14°C° 0 mm 4 mps 761 mmHg 60%
12:00 +15°C° 0 mm 4 mps 760 mmHg 57%
13:00 +16°C° 0 mm 5 mps 760 mmHg 53%
14:00 +15°C° 0 mm 5 mps 760 mmHg 55%
15:00 +14°C° 0 mm 5 mps 760 mmHg 57%
16:00 +14°C° 0 mm 5 mps 760 mmHg 59%
17:00 +12°C° 0 mm 5 mps 760 mmHg 63%
18:00 +9°C° 0 mm 5 mps 760 mmHg 67%
19:00 +8°C° 0 mm 5 mps 760 mmHg 71%
20:00 +7°C° 0 mm 4 mps 760 mmHg 70%
21:00 +6°C° 0 mm 4 mps 760 mmHg 68%
22:00 +6°C° 0 mm 4 mps 760 mmHg 66%
23:00 +5°C° 0 mm 4 mps 759 mmHg 68%

Tomorrow, 20 April, Tuesday

Time Temperature Precipitation Wind Pressure Humidity
00:00 +5°C° 0 mm 3 mps 759 mmHg 70%
01:00 +4°C° 0 mm 3 mps 759 mmHg 72%
02:00 +4°C° 0 mm 3 mps 759 mmHg 74%
03:00 +3°C° 0 mm 3 mps 759 mmHg 76%
04:00 +4°C° 0 mm 2 mps 759 mmHg 78%
05:00 +5°C° 0 mm 2 mps 759 mmHg 75%
06:00 +6°C° 0 mm 2 mps 759 mmHg 72%
07:00 +7°C° 0 mm 2 mps 759 mmHg 70%
08:00 +9°C° 0 mm 2 mps 758 mmHg 65%
09:00 +12°C° 0 mm 2 mps 758 mmHg 60%
10:00 +14°C° 0 mm 2 mps 758 mmHg 55%
11:00 +15°C° 0 mm 2 mps 758 mmHg 53%
12:00 +14°C° 0 mm 3 mps 757 mmHg 52%
13:00 +16°C° 0 mm 3 mps 757 mmHg 50%
14:00 +14°C° 0 mm 3 mps 757 mmHg 54%
15:00 +13°C° 0 mm 4 mps 757 mmHg 57%
16:00 +13°C° 0 mm 4 mps 757 mmHg 61%
17:00 +11°C° 0 mm 3 mps 756 mmHg 69%
18:00 +9°C° 0 mm 3 mps 756 mmHg 77%
19:00 +8°C° 0 mm 3 mps 756 mmHg 86%
20:00 +7°C° 0 mm 2 mps 756 mmHg 87%
21:00 +6°C° 0 mm 2 mps 756 mmHg 88%
22:00 +6°C° 0 mm 2 mps 756 mmHg 89%
23:00 +5°C° 0 mm 2 mps 756 mmHg 90%

Day after tomorrow, 21 April, Wednesday

Time Temperature Precipitation Wind Pressure Humidity
00:00 +5°C° 0 mm 2 mps 756 mmHg 90%
01:00 +5°C° 0 mm 2 mps 756 mmHg 91%
02:00 +5°C° 0 mm 2 mps 756 mmHg 91%
03:00 +4°C° 0 mm 2 mps 755 mmHg 91%
04:00 +4°C° 0 mm 2 mps 755 mmHg 92%
05:00 +5°C° 0 mm 2 mps 755 mmHg 87%
06:00 +7°C° 0 mm 2 mps 755 mmHg 82%
07:00 +8°C° 0 mm 2 mps 755 mmHg 78%
08:00 +9°C° 0 mm 3 mps 755 mmHg 71%
09:00 +11°C° 0 mm 3 mps 755 mmHg 63%
10:00 +12°C° 0 mm 3 mps 755 mmHg 56%
11:00 +13°C° 0 mm 4 mps 754 mmHg 54%
12:00 +13°C° 0 mm 4 mps 754 mmHg 52%
13:00 +14°C° 0 mm 5 mps 754 mmHg 50%
14:00 +12°C° 0.2 mm 5 mps 754 mmHg 61%
15:00 +9°C° 0.2 mm 6 mps 754 mmHg 73%
16:00 +8°C° 0.2 mm 7 mps 754 mmHg 84%
17:00 +7°C° 0.2 mm 6 mps 754 mmHg 81%
18:00 +6°C° 0.2 mm 5 mps 754 mmHg 78%
19:00 +5°C° 0.2 mm 4 mps 754 mmHg 75%
20:00 +3°C° 0 mm 5 mps 754 mmHg 76%
21:00 +3°C° 0 mm 6 mps 754 mmHg 78%
22:00 +2°C° 0 mm 6 mps 754 mmHg 80%
23:00 0°C° 0 mm 7 mps 753 mmHg 80%

22 April, Thursday

Time Temperature Precipitation Wind Pressure Humidity
00:00 0°C° 0 mm 7 mps 753 mmHg 79%
01:00 -1°C° 0 mm 8 mps 753 mmHg 79%
02:00 -1°C° 0 mm 8 mps 753 mmHg 77%
03:00 0°C° 0 mm 8 mps 753 mmHg 76%
04:00 0°C° 0 mm 8 mps 752 mmHg 74%
05:00 0°C° 0 mm 8 mps 752 mmHg 76%
06:00 0°C° 0 mm 8 mps 752 mmHg 79%
07:00 0°C° 0 mm 9 mps 752 mmHg 81%
08:00 +1°C° 0.2 mm 9 mps 752 mmHg 77%
09:00 +2°C° 0.2 mm 9 mps 752 mmHg 73%
10:00 +3°C° 0.2 mm 9 mps 752 mmHg 69%
11:00 +3°C° 0.4 mm 9 mps 752 mmHg 71%
12:00 +3°C° 0.4 mm 10 mps 753 mmHg 72%
13:00 +2°C° 0.4 mm 10 mps 753 mmHg 74%
14:00 +2°C° 0.4 mm 9 mps 753 mmHg 79%
15:00 +1°C° 0.4 mm 9 mps 753 mmHg 85%
16:00 +1°C° 0.4 mm 8 mps 754 mmHg 91%
17:00 +2°C° 0.2 mm 7 mps 754 mmHg 90%
18:00 +2°C° 0.2 mm 7 mps 754 mmHg 89%
19:00 +2°C° 0.2 mm 6 mps 754 mmHg 89%
20:00 +2°C° 0.1 mm 6 mps 755 mmHg 88%
21:00 +2°C° 0.1 mm 6 mps 755 mmHg 88%
22:00 +2°C° 0.1 mm 6 mps 755 mmHg 88%
23:00 +1°C° 0 mm 6 mps 756 mmHg 88%

23 April, Friday

Time Temperature Precipitation Wind Pressure Humidity
00:00 +1°C° 0 mm 6 mps 756 mmHg 89%
01:00 +1°C° 0 mm 6 mps 756 mmHg 90%
02:00 +1°C° 0 mm 5 mps 757 mmHg 89%
03:00 +2°C° 0 mm 5 mps 757 mmHg 88%
04:00 +2°C° 0 mm 5 mps 758 mmHg 87%
05:00 +2°C° 0.1 mm 5 mps 758 mmHg 86%
06:00 +2°C° 0.1 mm 5 mps 759 mmHg 85%
07:00 +2°C° 0.1 mm 5 mps 760 mmHg 84%
08:00 +3°C° 0.1 mm 6 mps 760 mmHg 76%
09:00 +4°C° 0.1 mm 6 mps 761 mmHg 67%
10:00 +5°C° 0.1 mm 6 mps 761 mmHg 59%
11:00 +6°C° 0 mm 7 mps 761 mmHg 53%
12:00 +6°C° 0 mm 7 mps 762 mmHg 47%
13:00 +8°C° 0 mm 7 mps 762 mmHg 41%
14:00 +7°C° 0 mm 6 mps 762 mmHg 40%
15:00 +7°C° 0 mm 6 mps 763 mmHg 40%
16:00 +7°C° 0 mm 5 mps 763 mmHg 39%
17:00 +6°C° 0 mm 4 mps 763 mmHg 44%
18:00 +5°C° 0 mm 3 mps 762 mmHg 48%
19:00 +5°C° 0 mm 2 mps 762 mmHg 52%
20:00 +4°C° 0 mm 3 mps 762 mmHg 51%
21:00 +4°C° 0 mm 4 mps 762 mmHg 50%
22:00 +4°C° 0 mm 4 mps 761 mmHg 50%
23:00 +3°C° 0 mm 5 mps 761 mmHg 58%

24 April, Saturday

Time Temperature Precipitation Wind Pressure Humidity
00:00 +3°C° 0 mm 5 mps 760 mmHg 67%
01:00 +3°C° 0 mm 6 mps 760 mmHg 75%
02:00 +3°C° 0 mm 6 mps 760 mmHg 78%
03:00 +3°C° 0 mm 6 mps 760 mmHg 82%
04:00 +2°C° 0 mm 7 mps 759 mmHg 85%
05:00 +3°C° 0.1 mm 7 mps 759 mmHg 85%
06:00 +3°C° 0.1 mm 6 mps 759 mmHg 84%
07:00 +3°C° 0.1 mm 6 mps 759 mmHg 84%
08:00 +4°C° 0.1 mm 6 mps 759 mmHg 81%
09:00 +4°C° 0.1 mm 7 mps 760 mmHg 79%
10:00 +5°C° 0.1 mm 7 mps 760 mmHg 76%
11:00 +5°C° 0.2 mm 7 mps 760 mmHg 72%
12:00 +7°C° 0.2 mm 6 mps 761 mmHg 67%
13:00 +7°C° 0.2 mm 6 mps 761 mmHg 63%
14:00 +7°C° 0 mm 6 mps 761 mmHg 57%
15:00 +7°C° 0 mm 5 mps 762 mmHg 51%
16:00 +7°C° 0 mm 5 mps 762 mmHg 46%
17:00 +6°C° 0 mm 5 mps 762 mmHg 53%
18:00 +5°C° 0 mm 4 mps 763 mmHg 60%
19:00 +3°C° 0 mm 4 mps 763 mmHg 66%
20:00 +3°C° 0 mm 4 mps 763 mmHg 69%
21:00 +1°C° 0 mm 4 mps 763 mmHg 72%
22:00 +1°C° 0 mm 4 mps 764 mmHg 74%
23:00 +1°C° 0 mm 4 mps 764 mmHg 75%
Show more